Weather History for Fort Stockton, TX

Change the Weather History Date:

Tuesday, September 24, 2013

  Actual Average Record
Temperature  
Mean Temperature 74 °F -  
Max Temperature 89 °F 84 °F 96 °F (1999)
Min Temperature 61 °F 60 °F 53 °F (2006)
Cooling Degree Days 9    
Growing Degree Days 24 (Base 50)    
Moisture  
Dew Point 38 °F    
Average Humidity 29    
Maximum Humidity 48    
Minimum Humidity 14    
Precipitation  
Precipitation 0.00 in - - ()
Sea Level Pressure  
Sea Level Pressure 29.89 in    
Wind  
Wind Speed 8 mph (West)    
Max Wind Speed 12 mph    
Max Gust Speed -    
Visibility 10 miles    
Events      
Averages and records for this station are not official NWS values.
T = Trace of Precipitation, MM = Missing Value Source: NWS Daily Summary

Daily Weather History Graph

Daily Weather History Graph

Search for Another Location

Airport:

Trip Planner

Search our weather history database for the weather conditions in past years. The results will help you decide how hot, cold, wet, or windy it might be!

Date:

Astronomy

Sep. 24, 2013 Rise Set
Actual Time 7:41 AM CDT 7:45 PM CDT
Civil Twilight 7:17 AM CDT 8:09 PM CDT
Nautical Twilight 6:49 AM CDT 8:37 PM CDT
Astronomical Twilight 6:20 AM CDT 9:05 PM CDT
Moon 11:24 PM CDT (9/24) 12:37 PM CDT (9/24)
Length of Visible Light 12h 52m
Length of Day
12h 04m
Waning Gibbous, 73% of the Moon is Illuminated
Sep 24
Waning Gibbous
Sep 26
Last Quarter
Oct 4
New
Oct 11
First Quarter
Oct 18
Full

Hourly Weather History & Observations

Time (CDT) Temp. Dew Point Humidity Pressure Visibility Wind Dir Wind Speed Gust Speed Precip Events Conditions
12:53 AM 72.0 °F 39.9 °F 31% 29.81 in 10.0 mi West 8.1 mph - N/A   Clear
1:53 AM 70.0 °F 39.9 °F 33% 29.82 in 10.0 mi West 9.2 mph - N/A   Clear
2:53 AM 68.0 °F 39.0 °F 35% 29.84 in 10.0 mi West 9.2 mph - N/A   Clear
3:53 AM 66.0 °F 39.0 °F 37% 29.84 in 10.0 mi West 8.1 mph - N/A   Clear
4:53 AM 64.0 °F 39.0 °F 40% 29.85 in 10.0 mi West 9.2 mph - N/A   Clear
5:53 AM 61.0 °F 41.0 °F 48% 29.87 in 10.0 mi WSW 8.1 mph - N/A   Clear
6:53 AM 61.0 °F 41.0 °F 48% 29.89 in 10.0 mi WSW 10.4 mph - N/A   Clear
7:53 AM 62.1 °F 39.0 °F 43% 29.92 in 10.0 mi West 10.4 mph - N/A   Clear
8:53 AM 66.9 °F 39.9 °F 37% 29.94 in 10.0 mi West 8.1 mph - N/A   Clear
9:53 AM 73.9 °F 37.0 °F 26% 29.95 in 10.0 mi WNW 10.4 mph - N/A   Clear
10:53 AM 75.9 °F 37.0 °F 24% 29.97 in 10.0 mi WNW 9.2 mph - N/A   Clear
11:53 AM 80.1 °F 37.9 °F 22% 29.97 in 10.0 mi NW 9.2 mph - N/A   Clear
12:53 PM 82.0 °F 39.0 °F 22% 29.96 in 10.0 mi NW 10.4 mph - N/A   Clear
1:53 PM 86.0 °F 37.0 °F 18% 29.93 in 10.0 mi NW 11.5 mph - N/A   Clear
2:53 PM 87.1 °F 35.1 °F 16% 29.90 in 10.0 mi North 8.1 mph - N/A   Clear
3:53 PM 87.1 °F 34.0 °F 15% 29.88 in 10.0 mi Variable 3.5 mph - N/A   Clear
4:53 PM 86.0 °F 33.1 °F 15% 29.87 in 10.0 mi Calm Calm - N/A   Clear
5:53 PM 87.1 °F 32.0 °F 14% 29.86 in 10.0 mi NNE 3.5 mph - N/A   Clear
6:53 PM 84.9 °F 34.0 °F 16% 29.87 in 10.0 mi ENE 4.6 mph - N/A   Clear
7:53 PM 79.0 °F 37.9 °F 23% 29.88 in 10.0 mi Calm Calm - N/A   Clear
8:53 PM 75.0 °F 41.0 °F 29% 29.88 in 10.0 mi South 5.8 mph - N/A   Clear
9:53 PM 71.1 °F 43.0 °F 36% 29.88 in 10.0 mi South 8.1 mph - N/A   Clear
10:53 PM 71.1 °F 41.0 °F 34% 29.88 in 10.0 mi South 6.9 mph - N/A   Clear
11:53 PM 68.0 °F 41.0 °F 37% 29.88 in 10.0 mi South 8.1 mph - N/A   Clear